contact:dominique.lefevre@mio.osupytheas.fr, maurice.libes@osupytheas.fr, didier.mallarino@osupytheas.fr
Project:EMSO http://www.emso-fr.org/EMSO-France
Depth: 2436.0 m
Title:EMSO Ligure Ouest : Data MII capteur OXYGEN
DateTime,Latitude,Longitude,Optode-Type,Optode_Serial,Oxygen,Saturation_Oxygen,Temperature
DateTime,Latitude,Longitude,Optode-Type,Optode_Serial,µmol.l-1,%,degC
2019-05-29T00:01:28,42.805,6.029,4330,1995,193.896,59.313,13.301
2019-05-29T00:04:28,42.805,6.029,4330,1995,193.954,59.330,13.300
2019-05-29T00:07:28,42.805,6.029,4330,1995,194.070,59.362,13.298
2019-05-29T00:10:28,42.805,6.029,4330,1995,194.189,59.400,13.299
2019-05-29T00:13:28,42.805,6.029,4330,1995,194.110,59.370,13.294
2019-05-29T00:16:28,42.805,6.029,4330,1995,194.105,59.373,13.298
2019-05-29T00:19:28,42.805,6.029,4330,1995,194.026,59.349,13.298
2019-05-29T00:22:28,42.805,6.029,4330,1995,193.950,59.327,13.299
2019-05-29T00:25:28,42.805,6.029,4330,1995,194.023,59.348,13.298
2019-05-29T00:28:28,42.805,6.029,4330,1995,193.775,59.274,13.299
2019-05-29T00:31:28,42.805,6.029,4330,1995,193.743,59.258,13.295
2019-05-29T00:34:28,42.805,6.029,4330,1995,193.652,59.229,13.294
2019-05-29T00:37:28,42.805,6.029,4330,1995,193.562,59.202,13.294
2019-05-29T00:40:28,42.805,6.029,4330,1995,193.750,59.258,13.293
2019-05-29T00:43:28,42.805,6.029,4330,1995,193.758,59.261,13.293
2019-05-29T00:46:28,42.805,6.029,4330,1995,193.763,59.263,13.293
2019-05-29T00:49:28,42.805,6.029,4330,1995,193.920,59.309,13.293
2019-05-29T00:52:28,42.805,6.029,4330,1995,194.013,59.338,13.292
2019-05-29T00:55:28,42.805,6.029,4330,1995,194.150,59.378,13.292
2019-05-29T00:58:28,42.805,6.029,4330,1995,194.063,59.352,13.292
2019-05-29T01:01:28,42.805,6.029,4330,1995,194.174,59.387,13.292
2019-05-29T01:04:28,42.805,6.029,4330,1995,194.142,59.376,13.291
2019-05-29T01:07:28,42.805,6.029,4330,1995,194.183,59.387,13.291
2019-05-29T01:10:28,42.805,6.029,4330,1995,194.163,59.382,13.291
2019-05-29T01:13:28,42.805,6.029,4330,1995,194.173,59.386,13.292
2019-05-29T01:16:28,42.805,6.029,4330,1995,194.303,59.424,13.290
2019-05-29T01:19:28,42.805,6.029,4330,1995,194.246,59.408,13.291
2019-05-29T01:22:28,42.805,6.029,4330,1995,194.220,59.399,13.291
2019-05-29T01:25:27,42.805,6.029,4330,1995,194.255,59.410,13.291
2019-05-29T01:28:27,42.805,6.029,4330,1995,194.261,59.410,13.290
2019-05-29T01:31:27,42.805,6.029,4330,1995,194.270,59.413,13.290
2019-05-29T01:34:27,42.805,6.029,4330,1995,194.287,59.418,13.290
2019-05-29T01:37:28,42.805,6.029,4330,1995,194.267,59.412,13.290
2019-05-29T01:40:28,42.805,6.029,4330,1995,194.253,59.409,13.291
2019-05-29T01:43:28,42.805,6.029,4330,1995,194.309,59.425,13.290
2019-05-29T01:46:28,42.805,6.029,4330,1995,194.339,59.435,13.290
2019-05-29T01:49:28,42.805,6.029,4330,1995,194.234,59.403,13.291
2019-05-29T01:52:28,42.805,6.029,4330,1995,194.368,59.443,13.290
2019-05-29T01:55:28,42.805,6.029,4330,1995,194.315,59.427,13.290
2019-05-29T01:58:28,42.805,6.029,4330,1995,194.292,59.419,13.289
2019-05-29T02:01:27,42.805,6.029,4330,1995,194.322,59.429,13.290
2019-05-29T02:04:27,42.805,6.029,4330,1995,194.418,59.459,13.290
2019-05-29T02:07:27,42.805,6.029,4330,1995,194.456,59.471,13.291
2019-05-29T02:10:27,42.805,6.029,4330,1995,194.488,59.480,13.290
2019-05-29T02:13:27,42.805,6.029,4330,1995,194.464,59.473,13.291
2019-05-29T02:16:27,42.805,6.029,4330,1995,194.442,59.466,13.290
2019-05-29T02:19:27,42.805,6.029,4330,1995,194.358,59.440,13.290
2019-05-29T02:22:27,42.805,6.029,4330,1995,194.465,59.473,13.290
2019-05-29T02:25:27,42.805,6.029,4330,1995,194.580,59.508,13.290
2019-05-29T02:28:27,42.805,6.029,4330,1995,194.724,59.553,13.290
2019-05-29T02:31:27,42.805,6.029,4330,1995,194.648,59.529,13.290
2019-05-29T02:34:27,42.805,6.029,4330,1995,194.659,59.534,13.292
2019-05-29T02:37:27,42.805,6.029,4330,1995,194.671,59.536,13.291
2019-05-29T02:40:27,42.805,6.029,4330,1995,194.640,59.527,13.291
2019-05-29T02:43:27,42.805,6.029,4330,1995,194.530,59.493,13.290
2019-05-29T02:46:27,42.805,6.029,4330,1995,194.586,59.511,13.291
2019-05-29T02:49:27,42.805,6.029,4330,1995,194.558,59.502,13.290
2019-05-29T02:52:27,42.805,6.029,4330,1995,194.538,59.496,13.291
2019-05-29T02:55:27,42.805,6.029,4330,1995,194.508,59.487,13.291
2019-05-29T02:58:27,42.805,6.029,4330,1995,194.584,59.510,13.291
2019-05-29T03:01:27,42.805,6.029,4330,1995,194.538,59.495,13.290
2019-05-29T03:04:27,42.805,6.029,4330,1995,194.564,59.503,13.290
2019-05-29T03:07:27,42.805,6.029,4330,1995,194.632,59.524,13.290
2019-05-29T03:10:27,42.805,6.029,4330,1995,194.676,59.537,13.290
2019-05-29T03:13:27,42.805,6.029,4330,1995,194.737,59.555,13.289
2019-05-29T03:16:27,42.805,6.029,4330,1995,194.749,59.559,13.289
2019-05-29T03:19:27,42.805,6.029,4330,1995,194.740,59.556,13.289
2019-05-29T03:22:27,42.805,6.029,4330,1995,194.710,59.546,13.289
2019-05-29T03:25:27,42.805,6.029,4330,1995,194.711,59.547,13.289
2019-05-29T03:28:27,42.805,6.029,4330,1995,194.717,59.548,13.289
2019-05-29T03:31:27,42.805,6.029,4330,1995,194.803,59.575,13.289
2019-05-29T03:34:27,42.805,6.029,4330,1995,194.738,59.555,13.289
2019-05-29T03:37:27,42.805,6.029,4330,1995,194.781,59.568,13.289
2019-05-29T03:40:27,42.805,6.029,4330,1995,194.846,59.587,13.289
2019-05-29T03:43:27,42.805,6.029,4330,1995,194.839,59.586,13.289
2019-05-29T03:46:27,42.805,6.029,4330,1995,194.867,59.594,13.289
2019-05-29T03:49:27,42.805,6.029,4330,1995,194.865,59.594,13.289
2019-05-29T03:52:27,42.805,6.029,4330,1995,194.884,59.600,13.289
2019-05-29T03:55:27,42.805,6.029,4330,1995,194.854,59.591,13.289
2019-05-29T03:58:27,42.805,6.029,4330,1995,194.892,59.602,13.289
2019-05-29T04:01:27,42.805,6.029,4330,1995,194.879,59.598,13.289
2019-05-29T04:04:27,42.805,6.029,4330,1995,194.911,59.608,13.289
2019-05-29T04:07:27,42.805,6.029,4330,1995,194.876,59.598,13.289
2019-05-29T04:10:27,42.805,6.029,4330,1995,194.920,59.611,13.289
2019-05-29T04:13:27,42.805,6.029,4330,1995,194.936,59.616,13.290
2019-05-29T04:16:27,42.805,6.029,4330,1995,194.968,59.625,13.289
2019-05-29T04:19:27,42.805,6.029,4330,1995,194.988,59.632,13.289
2019-05-29T04:22:27,42.805,6.029,4330,1995,195.013,59.640,13.289
2019-05-29T04:25:27,42.805,6.029,4330,1995,195.012,59.639,13.289
2019-05-29T04:28:27,42.805,6.029,4330,1995,195.103,59.667,13.290
2019-05-29T04:31:27,42.805,6.029,4330,1995,195.097,59.666,13.290
2019-05-29T04:34:27,42.805,6.029,4330,1995,195.149,59.682,13.290
2019-05-29T04:37:27,42.805,6.029,4330,1995,195.117,59.672,13.290
2019-05-29T04:40:27,42.805,6.029,4330,1995,195.189,59.694,13.290
2019-05-29T04:43:27,42.805,6.029,4330,1995,195.116,59.672,13.290
2019-05-29T04:46:27,42.805,6.029,4330,1995,195.088,59.663,13.290
2019-05-29T04:49:27,42.805,6.029,4330,1995,195.197,59.697,13.290
2019-05-29T04:52:27,42.805,6.029,4330,1995,195.174,59.690,13.290
2019-05-29T04:55:27,42.805,6.029,4330,1995,195.187,59.693,13.290
2019-05-29T04:58:27,42.805,6.029,4330,1995,195.214,59.702,13.290
2019-05-29T05:01:27,42.805,6.029,4330,1995,195.277,59.721,13.290
2019-05-29T05:04:27,42.805,6.029,4330,1995,195.240,59.709,13.289
2019-05-29T05:07:27,42.805,6.029,4330,1995,195.271,59.719,13.290
2019-05-29T05:10:27,42.805,6.029,4330,1995,195.274,59.719,13.289
2019-05-29T05:13:27,42.805,6.029,4330,1995,195.299,59.727,13.290
2019-05-29T05:16:27,42.805,6.029,4330,1995,195.330,59.737,13.290
2019-05-29T05:19:27,42.805,6.029,4330,1995,195.361,59.745,13.289
2019-05-29T05:22:27,42.805,6.029,4330,1995,195.402,59.758,13.289
2019-05-29T05:25:27,42.805,6.029,4330,1995,195.376,59.750,13.289
2019-05-29T05:28:27,42.805,6.029,4330,1995,195.395,59.756,13.289
2019-05-29T05:31:27,42.805,6.029,4330,1995,195.365,59.746,13.289
2019-05-29T05:34:27,42.805,6.029,4330,1995,195.405,59.758,13.288
2019-05-29T05:37:27,42.805,6.029,4330,1995,195.443,59.770,13.288
2019-05-29T05:40:27,42.805,6.029,4330,1995,195.426,59.764,13.288
2019-05-29T05:43:27,42.805,6.029,4330,1995,195.496,59.785,13.288
2019-05-29T05:46:27,42.805,6.029,4330,1995,195.561,59.805,13.288
2019-05-29T05:49:27,42.805,6.029,4330,1995,195.546,59.801,13.288
2019-05-29T05:52:27,42.805,6.029,4330,1995,195.525,59.794,13.288
2019-05-29T05:55:27,42.805,6.029,4330,1995,195.573,59.808,13.287
2019-05-29T05:58:27,42.805,6.029,4330,1995,195.651,59.832,13.288
2019-05-29T06:01:27,42.805,6.029,4330,1995,195.636,59.828,13.288
2019-05-29T06:04:27,42.805,6.029,4330,1995,195.601,59.818,13.288
2019-05-29T06:07:27,42.805,6.029,4330,1995,195.630,59.827,13.289
2019-05-29T06:10:27,42.805,6.029,4330,1995,195.674,59.840,13.288
2019-05-29T06:13:27,42.805,6.029,4330,1995,195.675,59.840,13.288
2019-05-29T06:16:27,42.805,6.029,4330,1995,195.717,59.853,13.288
2019-05-29T06:19:27,42.805,6.029,4330,1995,195.664,59.836,13.288
2019-05-29T06:22:27,42.805,6.029,4330,1995,195.765,59.867,13.288
2019-05-29T06:25:27,42.805,6.029,4330,1995,195.738,59.859,13.288
2019-05-29T06:28:27,42.805,6.029,4330,1995,195.730,59.857,13.288
2019-05-29T06:31:27,42.805,6.029,4330,1995,195.739,59.860,13.288
2019-05-29T06:34:27,42.805,6.029,4330,1995,195.768,59.868,13.288
2019-05-29T06:37:27,42.805,6.029,4330,1995,195.779,59.872,13.288
2019-05-29T06:40:27,42.805,6.029,4330,1995,195.761,59.866,13.288
2019-05-29T06:43:27,42.805,6.029,4330,1995,195.843,59.891,13.288
2019-05-29T06:46:27,42.805,6.029,4330,1995,195.785,59.874,13.288
2019-05-29T06:49:27,42.805,6.029,4330,1995,195.799,59.878,13.288
2019-05-29T06:52:27,42.805,6.029,4330,1995,195.781,59.873,13.288
2019-05-29T06:55:27,42.805,6.029,4330,1995,195.796,59.877,13.288
2019-05-29T06:58:27,42.805,6.029,4330,1995,195.770,59.869,13.288
2019-05-29T07:01:27,42.805,6.029,4330,1995,195.799,59.878,13.288
2019-05-29T07:04:27,42.805,6.029,4330,1995,195.767,59.868,13.288
2019-05-29T07:07:27,42.805,6.029,4330,1995,195.784,59.874,13.288
2019-05-29T07:10:27,42.805,6.029,4330,1995,195.771,59.870,13.288
2019-05-29T07:13:27,42.805,6.029,4330,1995,195.820,59.885,13.288
2019-05-29T07:16:27,42.805,6.029,4330,1995,195.784,59.874,13.288
2019-05-29T07:19:27,42.805,6.029,4330,1995,195.747,59.862,13.288
2019-05-29T07:22:27,42.805,6.029,4330,1995,195.750,59.863,13.288
2019-05-29T07:25:27,42.805,6.029,4330,1995,195.778,59.872,13.288
2019-05-29T07:28:27,42.805,6.029,4330,1995,195.729,59.857,13.288
2019-05-29T07:31:27,42.805,6.029,4330,1995,195.701,59.848,13.288
2019-05-29T07:34:27,42.805,6.029,4330,1995,195.727,59.856,13.288
2019-05-29T07:37:27,42.805,6.029,4330,1995,195.673,59.839,13.288
2019-05-29T07:40:27,42.805,6.029,4330,1995,195.626,59.825,13.288
2019-05-29T07:43:27,42.805,6.029,4330,1995,195.652,59.833,13.288
2019-05-29T07:46:27,42.805,6.029,4330,1995,195.663,59.836,13.288
2019-05-29T07:49:27,42.805,6.029,4330,1995,195.607,59.819,13.288
2019-05-29T07:52:27,42.805,6.029,4330,1995,195.613,59.821,13.288
2019-05-29T07:55:27,42.805,6.029,4330,1995,195.554,59.802,13.287
2019-05-29T07:58:27,42.805,6.029,4330,1995,195.534,59.796,13.288
2019-05-29T08:01:27,42.805,6.029,4330,1995,195.532,59.796,13.287
2019-05-29T08:04:27,42.805,6.029,4330,1995,195.603,59.818,13.288
2019-05-29T08:07:27,42.805,6.029,4330,1995,195.496,59.785,13.288
2019-05-29T08:10:27,42.805,6.029,4330,1995,195.487,59.782,13.288
2019-05-29T08:13:27,42.805,6.029,4330,1995,195.515,59.791,13.288
2019-05-29T08:16:27,42.805,6.029,4330,1995,195.494,59.784,13.288
2019-05-29T08:19:27,42.805,6.029,4330,1995,195.507,59.789,13.288
2019-05-29T08:22:27,42.805,6.029,4330,1995,195.471,59.778,13.288
2019-05-29T08:25:27,42.805,6.029,4330,1995,195.457,59.773,13.288
2019-05-29T08:28:27,42.805,6.029,4330,1995,195.438,59.768,13.288
2019-05-29T08:31:27,42.805,6.029,4330,1995,195.410,59.759,13.288
2019-05-29T08:34:27,42.805,6.029,4330,1995,195.494,59.785,13.288
2019-05-29T08:37:27,42.805,6.029,4330,1995,195.412,59.760,13.288
2019-05-29T08:40:27,42.805,6.029,4330,1995,195.392,59.754,13.288
2019-05-29T08:43:27,42.805,6.029,4330,1995,195.417,59.761,13.288
2019-05-29T08:46:27,42.805,6.029,4330,1995,195.397,59.756,13.288
2019-05-29T08:49:27,42.805,6.029,4330,1995,195.431,59.766,13.288
2019-05-29T08:52:27,42.805,6.029,4330,1995,195.482,59.782,13.288
2019-05-29T08:55:27,42.805,6.029,4330,1995,195.495,59.786,13.289
2019-05-29T08:58:27,42.805,6.029,4330,1995,195.512,59.791,13.289
2019-05-29T09:01:27,42.805,6.029,4330,1995,195.473,59.779,13.289
2019-05-29T09:04:27,42.805,6.029,4330,1995,195.476,59.781,13.289
2019-05-29T09:07:27,42.805,6.029,4330,1995,195.497,59.787,13.289
2019-05-29T09:10:27,42.805,6.029,4330,1995,195.469,59.778,13.289
2019-05-29T09:13:27,42.805,6.029,4330,1995,195.487,59.784,13.289
2019-05-29T09:16:27,42.805,6.029,4330,1995,195.537,59.799,13.289
2019-05-29T09:19:27,42.805,6.029,4330,1995,195.554,59.804,13.289
2019-05-29T09:22:27,42.805,6.029,4330,1995,195.527,59.796,13.289
2019-05-29T09:25:27,42.805,6.029,4330,1995,195.539,59.800,13.289
2019-05-29T09:28:27,42.805,6.029,4330,1995,195.506,59.790,13.289
2019-05-29T09:31:27,42.805,6.029,4330,1995,195.539,59.800,13.289
2019-05-29T09:34:27,42.805,6.029,4330,1995,195.502,59.788,13.289
2019-05-29T09:37:27,42.805,6.029,4330,1995,195.561,59.806,13.289
2019-05-29T09:40:27,42.805,6.029,4330,1995,195.572,59.810,13.289
2019-05-29T09:43:27,42.805,6.029,4330,1995,195.527,59.796,13.289
2019-05-29T09:46:27,42.805,6.029,4330,1995,195.527,59.795,13.288
2019-05-29T09:49:27,42.805,6.029,4330,1995,195.542,59.800,13.288
2019-05-29T09:52:27,42.805,6.029,4330,1995,195.519,59.793,13.288
2019-05-29T09:55:27,42.805,6.029,4330,1995,195.531,59.796,13.288
2019-05-29T09:58:27,42.805,6.029,4330,1995,195.556,59.804,13.288
2019-05-29T10:01:27,42.805,6.029,4330,1995,195.515,59.791,13.288
2019-05-29T10:04:27,42.805,6.029,4330,1995,195.522,59.793,13.288
2019-05-29T10:07:27,42.805,6.029,4330,1995,195.524,59.794,13.288
2019-05-29T10:10:27,42.805,6.029,4330,1995,195.519,59.792,13.288
2019-05-29T10:13:27,42.805,6.029,4330,1995,195.524,59.794,13.288
2019-05-29T10:16:27,42.805,6.029,4330,1995,195.570,59.808,13.288
2019-05-29T10:19:27,42.805,6.029,4330,1995,195.537,59.798,13.288
2019-05-29T10:22:27,42.805,6.029,4330,1995,195.495,59.785,13.288
2019-05-29T10:25:27,42.805,6.029,4330,1995,195.529,59.796,13.288
2019-05-29T10:28:27,42.805,6.029,4330,1995,195.523,59.794,13.288
2019-05-29T10:31:27,42.805,6.029,4330,1995,195.524,59.794,13.288
2019-05-29T10:34:27,42.805,6.029,4330,1995,195.519,59.793,13.288
2019-05-29T10:37:27,42.805,6.029,4330,1995,195.592,59.815,13.288
2019-05-29T10:40:27,42.805,6.029,4330,1995,195.569,59.808,13.288
2019-05-29T10:43:27,42.805,6.029,4330,1995,195.524,59.794,13.288
2019-05-29T10:46:27,42.805,6.029,4330,1995,195.519,59.793,13.288
2019-05-29T10:49:27,42.805,6.029,4330,1995,195.532,59.797,13.288
2019-05-29T10:52:27,42.805,6.029,4330,1995,195.594,59.816,13.289
2019-05-29T10:55:27,42.805,6.029,4330,1995,195.543,59.800,13.289
2019-05-29T10:58:27,42.805,6.029,4330,1995,195.516,59.792,13.289
2019-05-29T11:01:27,42.805,6.029,4330,1995,195.552,59.803,13.289
2019-05-29T11:04:27,42.805,6.029,4330,1995,195.533,59.797,13.289
2019-05-29T11:07:27,42.805,6.029,4330,1995,195.496,59.786,13.289
2019-05-29T11:10:27,42.805,6.029,4330,1995,195.498,59.787,13.289
2019-05-29T11:13:27,42.805,6.029,4330,1995,195.552,59.803,13.289
2019-05-29T11:16:27,42.805,6.029,4330,1995,195.579,59.812,13.289
2019-05-29T11:19:27,42.805,6.029,4330,1995,195.552,59.803,13.289
2019-05-29T11:22:27,42.805,6.029,4330,1995,195.545,59.802,13.289
2019-05-29T11:25:27,42.805,6.029,4330,1995,195.518,59.794,13.289
2019-05-29T11:28:27,42.805,6.029,4330,1995,195.498,59.787,13.289
2019-05-29T11:31:27,42.805,6.029,4330,1995,195.480,59.782,13.289
2019-05-29T11:34:27,42.805,6.029,4330,1995,195.460,59.776,13.289
2019-05-29T11:37:27,42.805,6.029,4330,1995,195.546,59.802,13.289
2019-05-29T11:40:27,42.805,6.029,4330,1995,195.507,59.790,13.289
2019-05-29T11:43:27,42.805,6.029,4330,1995,195.506,59.790,13.289
2019-05-29T11:46:27,42.805,6.029,4330,1995,195.542,59.801,13.289
2019-05-29T11:49:27,42.805,6.029,4330,1995,195.524,59.795,13.289
2019-05-29T11:52:27,42.805,6.029,4330,1995,195.593,59.816,13.289
2019-05-29T11:55:27,42.805,6.029,4330,1995,195.562,59.806,13.289
2019-05-29T11:58:27,42.805,6.029,4330,1995,195.510,59.790,13.288
2019-05-29T12:01:27,42.805,6.029,4330,1995,195.519,59.793,13.288
2019-05-29T12:04:27,42.805,6.029,4330,1995,195.548,59.802,13.288
2019-05-29T12:07:27,42.805,6.029,4330,1995,195.567,59.807,13.288
2019-05-29T12:10:27,42.805,6.029,4330,1995,195.513,59.791,13.288
2019-05-29T12:13:27,42.805,6.029,4330,1995,195.496,59.786,13.288
2019-05-29T12:16:27,42.805,6.029,4330,1995,195.529,59.795,13.288
2019-05-29T12:19:27,42.805,6.029,4330,1995,195.468,59.777,13.288
2019-05-29T12:22:27,42.805,6.029,4330,1995,195.480,59.780,13.288
2019-05-29T12:25:27,42.805,6.029,4330,1995,195.473,59.778,13.288
2019-05-29T12:28:27,42.805,6.029,4330,1995,195.430,59.765,13.288
2019-05-29T12:31:27,42.805,6.029,4330,1995,195.447,59.771,13.288
2019-05-29T12:34:27,42.805,6.029,4330,1995,195.499,59.787,13.288
2019-05-29T12:37:27,42.805,6.029,4330,1995,195.488,59.783,13.288
2019-05-29T12:40:27,42.805,6.029,4330,1995,195.460,59.774,13.288
2019-05-29T12:43:27,42.805,6.029,4330,1995,195.482,59.782,13.288
2019-05-29T12:46:27,42.805,6.029,4330,1995,195.488,59.784,13.289
2019-05-29T12:49:27,42.805,6.029,4330,1995,195.521,59.794,13.289
2019-05-29T12:52:27,42.805,6.029,4330,1995,195.440,59.769,13.289
2019-05-29T12:55:27,42.805,6.029,4330,1995,195.488,59.784,13.288
2019-05-29T12:58:27,42.805,6.029,4330,1995,195.468,59.777,13.289
2019-05-29T13:01:27,42.805,6.029,4330,1995,195.451,59.772,13.289
2019-05-29T13:04:27,42.805,6.029,4330,1995,195.454,59.773,13.289
2019-05-29T13:07:27,42.805,6.029,4330,1995,195.438,59.768,13.289
2019-05-29T13:10:27,42.805,6.029,4330,1995,195.418,59.763,13.289
2019-05-29T13:13:27,42.805,6.029,4330,1995,195.436,59.768,13.289
2019-05-29T13:16:27,42.805,6.029,4330,1995,195.464,59.776,13.289
2019-05-29T13:19:27,42.805,6.029,4330,1995,195.506,59.790,13.289
2019-05-29T13:22:27,42.805,6.029,4330,1995,195.480,59.782,13.289
2019-05-29T13:25:27,42.805,6.029,4330,1995,195.474,59.780,13.289
2019-05-29T13:28:27,42.805,6.029,4330,1995,195.424,59.765,13.289
2019-05-29T13:31:27,42.805,6.029,4330,1995,195.409,59.760,13.289
2019-05-29T13:34:27,42.805,6.029,4330,1995,195.410,59.761,13.289
2019-05-29T13:37:27,42.805,6.029,4330,1995,195.420,59.764,13.289
2019-05-29T13:40:27,42.805,6.029,4330,1995,195.460,59.776,13.289
2019-05-29T13:43:27,42.805,6.029,4330,1995,195.419,59.763,13.289
2019-05-29T13:46:27,42.805,6.029,4330,1995,195.451,59.773,13.289
2019-05-29T13:49:27,42.805,6.029,4330,1995,195.474,59.780,13.289
2019-05-29T13:52:27,42.805,6.029,4330,1995,195.444,59.771,13.289
2019-05-29T13:55:27,42.805,6.029,4330,1995,195.411,59.761,13.289
2019-05-29T13:58:27,42.805,6.029,4330,1995,195.465,59.777,13.289
2019-05-29T14:01:27,42.805,6.029,4330,1995,195.445,59.771,13.289
2019-05-29T14:04:27,42.805,6.029,4330,1995,195.465,59.777,13.289
2019-05-29T14:07:27,42.805,6.029,4330,1995,195.465,59.777,13.289
2019-05-29T14:10:27,42.805,6.029,4330,1995,195.463,59.776,13.289
2019-05-29T14:13:27,42.805,6.029,4330,1995,195.426,59.764,13.288
2019-05-29T14:16:27,42.805,6.029,4330,1995,195.398,59.756,13.288
2019-05-29T14:19:27,42.805,6.029,4330,1995,195.400,59.756,13.288
2019-05-29T14:22:27,42.805,6.029,4330,1995,195.412,59.760,13.288
2019-05-29T14:25:27,42.805,6.029,4330,1995,195.478,59.780,13.288
2019-05-29T14:28:27,42.805,6.029,4330,1995,195.390,59.753,13.288
2019-05-29T14:31:27,42.805,6.029,4330,1995,195.484,59.781,13.288
2019-05-29T14:34:27,42.805,6.029,4330,1995,195.466,59.776,13.288
2019-05-29T14:37:27,42.805,6.029,4330,1995,195.440,59.768,13.288
2019-05-29T14:40:27,42.805,6.029,4330,1995,195.432,59.766,13.288
2019-05-29T14:43:27,42.805,6.029,4330,1995,195.455,59.773,13.288
2019-05-29T14:46:27,42.805,6.029,4330,1995,195.374,59.748,13.288
2019-05-29T14:49:27,42.805,6.029,4330,1995,195.389,59.752,13.288
2019-05-29T14:52:27,42.805,6.029,4330,1995,195.474,59.779,13.288
2019-05-29T14:55:27,42.805,6.029,4330,1995,195.460,59.774,13.288
2019-05-29T14:58:27,42.805,6.029,4330,1995,195.440,59.768,13.288
2019-05-29T15:01:27,42.805,6.029,4330,1995,195.433,59.766,13.288
2019-05-29T15:04:27,42.805,6.029,4330,1995,195.454,59.773,13.288
2019-05-29T15:07:27,42.805,6.029,4330,1995,195.463,59.776,13.288
2019-05-29T15:10:27,42.805,6.029,4330,1995,195.411,59.760,13.289
2019-05-29T15:13:27,42.805,6.029,4330,1995,195.397,59.756,13.289
2019-05-29T15:16:27,42.805,6.029,4330,1995,195.516,59.792,13.289
2019-05-29T15:19:27,42.805,6.029,4330,1995,195.482,59.782,13.289
2019-05-29T15:22:27,42.805,6.029,4330,1995,195.482,59.782,13.289
2019-05-29T15:25:27,42.805,6.029,4330,1995,195.500,59.788,13.289
2019-05-29T15:28:27,42.805,6.029,4330,1995,195.517,59.793,13.289
2019-05-29T15:31:27,42.805,6.029,4330,1995,195.481,59.782,13.289
2019-05-29T15:34:27,42.805,6.029,4330,1995,195.517,59.793,13.289
2019-05-29T15:37:27,42.805,6.029,4330,1995,195.504,59.789,13.289
2019-05-29T15:40:27,42.805,6.029,4330,1995,195.486,59.783,13.289
2019-05-29T15:43:27,42.805,6.029,4330,1995,195.468,59.778,13.289
2019-05-29T15:46:27,42.805,6.029,4330,1995,195.443,59.771,13.289
2019-05-29T15:49:27,42.805,6.029,4330,1995,195.473,59.780,13.289
2019-05-29T15:52:27,42.805,6.029,4330,1995,195.442,59.770,13.289
2019-05-29T15:55:27,42.805,6.029,4330,1995,195.510,59.791,13.289
2019-05-29T15:58:27,42.805,6.029,4330,1995,195.456,59.775,13.289
2019-05-29T16:01:27,42.805,6.029,4330,1995,195.463,59.777,13.289
2019-05-29T16:04:27,42.805,6.029,4330,1995,195.417,59.763,13.289
2019-05-29T16:07:27,42.805,6.029,4330,1995,195.445,59.771,13.289
2019-05-29T16:10:27,42.805,6.029,4330,1995,195.430,59.767,13.289
2019-05-29T16:13:27,42.805,6.029,4330,1995,195.414,59.762,13.289
2019-05-29T16:16:27,42.805,6.029,4330,1995,195.387,59.753,13.289
2019-05-29T16:19:27,42.805,6.029,4330,1995,195.383,59.752,13.289
2019-05-29T16:22:27,42.805,6.029,4330,1995,195.357,59.744,13.289
2019-05-29T16:25:27,42.805,6.029,4330,1995,195.361,59.745,13.289
2019-05-29T16:28:27,42.805,6.029,4330,1995,195.410,59.759,13.288
2019-05-29T16:31:27,42.805,6.029,4330,1995,195.366,59.746,13.288
2019-05-29T16:34:27,42.805,6.029,4330,1995,195.356,59.743,13.288
2019-05-29T16:37:27,42.805,6.029,4330,1995,195.330,59.735,13.288
2019-05-29T16:40:27,42.805,6.029,4330,1995,195.284,59.721,13.288
2019-05-29T16:43:27,42.805,6.029,4330,1995,195.297,59.725,13.288
2019-05-29T16:46:27,42.805,6.029,4330,1995,195.296,59.724,13.288
2019-05-29T16:49:27,42.805,6.029,4330,1995,195.303,59.727,13.288
2019-05-29T16:52:27,42.805,6.029,4330,1995,195.268,59.716,13.289
2019-05-29T16:55:27,42.805,6.029,4330,1995,195.236,59.707,13.289
2019-05-29T16:58:27,42.805,6.029,4330,1995,195.167,59.686,13.289
2019-05-29T17:01:27,42.805,6.029,4330,1995,195.229,59.705,13.289
2019-05-29T17:04:27,42.805,6.029,4330,1995,195.255,59.713,13.289
2019-05-29T17:07:27,42.805,6.029,4330,1995,195.217,59.701,13.289
2019-05-29T17:10:27,42.805,6.029,4330,1995,195.183,59.691,13.289
2019-05-29T17:13:27,42.805,6.029,4330,1995,195.233,59.706,13.289
2019-05-29T17:16:27,42.805,6.029,4330,1995,195.251,59.712,13.289
2019-05-29T17:19:27,42.805,6.029,4330,1995,195.227,59.704,13.289
2019-05-29T17:22:27,42.805,6.029,4330,1995,195.236,59.707,13.289
2019-05-29T17:25:27,42.805,6.029,4330,1995,195.245,59.710,13.289
2019-05-29T17:28:27,42.805,6.029,4330,1995,195.240,59.708,13.289
2019-05-29T17:31:27,42.805,6.029,4330,1995,195.283,59.721,13.289
2019-05-29T17:34:27,42.805,6.029,4330,1995,195.265,59.716,13.289
2019-05-29T17:37:27,42.805,6.029,4330,1995,195.257,59.714,13.289
2019-05-29T17:40:27,42.805,6.029,4330,1995,195.259,59.715,13.289
2019-05-29T17:43:27,42.805,6.029,4330,1995,195.266,59.716,13.289
2019-05-29T17:46:27,42.805,6.029,4330,1995,195.235,59.707,13.289
2019-05-29T17:49:27,42.805,6.029,4330,1995,195.211,59.700,13.290
2019-05-29T17:52:27,42.805,6.029,4330,1995,195.230,59.706,13.290
2019-05-29T17:55:27,42.805,6.029,4330,1995,195.274,59.719,13.289
2019-05-29T17:58:27,42.805,6.029,4330,1995,195.317,59.733,13.290
2019-05-29T18:01:27,42.805,6.029,4330,1995,195.227,59.705,13.289
2019-05-29T18:04:27,42.805,6.029,4330,1995,195.284,59.723,13.290
2019-05-29T18:07:27,42.805,6.029,4330,1995,195.360,59.746,13.290